User: anonymous   Login
Location: Hoyos del Collado
(40.3594°N, 5.2003°W)
Time: 17:19:38
(UTC+00:00)
Language:

Cosmos 2227 Rocket - Orbit

View from above orbital plane
View from above orbital plane
View from above satellite
View from above satellite

Ground track
Ground track

The orbit data is extracted from the following two-line orbital elements,

1 22285U 92093B   24166.64220964  .00000258  00000-0  15714-3 0  9990
2 22285  71.0215 253.0356 0005244 214.9681 145.1099 14.15260521623587
Epoch (UTC): 14 June 2024 15:24:46
Eccentricity: 0.0005244
inclination: 71.0215°
perigee height: 837 km
apogee height: 845 km
right ascension of ascending node: 253.0356°
argument of perigee: 214.9681°
revolutions per day: 14.15260521
mean anomaly at epoch: 145.1099°
orbit number at epoch: 62358

The dashed part of the orbit path shows where the satellite is in the earth's shadow,  

DLR